Regional Weather Roundup
Issued by NWS

Home | Current Version | Previous Version | Graphics & Text | Print | Product List | Glossary On
Versions: 1 2 3 4 5 6 7 8 9 10 11 12 13 14 15 16 17 18 19 20 21 22 23 24 25 26 27 28 29 30 31 32 33 34 35 36 37 38 39 40 41 42 43 44 45 46 47 48 49 50
000
ASUS43 KBIS 282102
RWRND

NORTH DAKOTA REGIONAL WEATHER ROUNDUP
NATIONAL WEATHER SERVICE BISMARCK ND
400 PM CDT SUN MAY 28 2017

NOTE: "FAIR" INDICATES FEW OR NO CLOUDS BELOW 12,000 FEET WITH NO
SIGNIFICANT WEATHER AND/OR OBSTRUCTIONS TO VISIBILITY.


NDZ001>003-009>011-017-282200-
NORTHWEST NORTH DAKOTA

CITY           SKY/WX    TMP DP  RH WIND       PRES   REMARKS
WILLISTON      PTSUNNY   70  34  26 N26G32    29.99S
MINOT          PTSUNNY   66  38  35 NW28G45   29.88R
MINOT AFB      PTSUNNY   66  39  37 N31G39    29.87R
$$

NDZ018>021-031>035-040>046-282200-
SOUTHWEST NORTH DAKOTA

CITY           SKY/WX    TMP DP  RH WIND       PRES   REMARKS
BISMARCK       FAIR      73  39  29 NW22G35   29.85F
DICKINSON      FAIR      71  30  21 N29G37    29.93S
GARRISON         N/A     68  36  30 N30G45    29.88R
HETTINGER ARPT CLOUDY    73  38  27 NW24G41   29.95S
$$

NDZ004>008-012>016-024-026-027-054-282200-
NORTHEAST NORTH DAKOTA

CITY           SKY/WX    TMP DP  RH WIND       PRES   REMARKS
GRAND FORKS    PTSUNNY   64  51  62 N14       29.72R
GRND FRKS AFB  CLOUDY    60  50  68 NW13G20   29.72F
DEVILS LAKE    CLOUDY    57  43  59 NW28G33   29.78S
$$

NDZ022-023-025-028>030-036>039-047>053-282200-
SOUTHEAST NORTH DAKOTA

CITY           SKY/WX    TMP DP  RH WIND       PRES   REMARKS
FARGO          PTSUNNY   67  41  38 NW38G59   29.72S HAZE
JAMESTOWN      PTSUNNY   61  47  59 NW20G28   29.78S
$$




USA.gov is the U.S. government's official web portal to all federal, state and local government web resources and services.